Stacy, NC (28581)

3:30 PM EDT on September 02, 2015 (GMT -0400)
Core Sound's 2 West Shore Heel of Rock Jetty | | Change Station
CLOSE
Current Station
Personal Weather Station
Location: Davis, NC
Elevation: 13 ft
Nearby Weather Stations

Elev 13 ft 34.80 °N, 76.46 °W | Updated 10 seconds ago

Clear
Clear
84.9 °F
Feels Like 97 °F
N
4.0
Wind Variable Wind from South
Gusts 4.0 mph

Today
High -- | Low -- °F
--% Chance of Precip.
Yesterday
High -- | Low -- °F
Precip. -- in
6:39 AM 7:31 PM
Waning Gibbous, 78% visible
Pressure 30.01 in
Visibility 10.0 miles
Clouds Clear
Heat Index 97 °F
Dew Point 79 °F
Humidity 82%
Rainfall 0.00 in
Snow Depth Not available.
UV 8 out of 12
Pollen 8.70 out of 12
Air Quality Not available.
Flu Activity Not available.
METAR KMRH 021858Z AUTO 18005KT 10SM CLR 29/23 A3001 RMK AO2 SLP163 T02940228 TSNO
Pressure 30.01 in
Visibility 10.0 miles
Clouds Clear
Heat Index 97 °F
Dew Point 79 °F
Humidity 82%
Rainfall 0.00 in
Snow Depth Not available.
UV 8 out of 12
Pollen 8.70 out of 12
Air Quality Not available.
Flu Activity Not available.
METAR KMRH 021858Z AUTO 18005KT 10SM CLR 29/23 A3001 RMK AO2 SLP163 T02940228 TSNO

10-Day Weather Forecast

×

Almanac

Astronomy

Sep. 02, 2015 Rise Set
Actual Time
Civil Twilight
Nautical Twilight
Astronomical Twilight
Moon
Length of Visible Light
Length of Day
Tomorrow will be .
, % of the Moon is Illuminated

Today's Extremes

State Highs State Lows

Community

WunderPhotos

Upload Photos

1,851,799 photos uploaded!

WunderBlogs® & News

Nearby

Air Quality

  Air Quality AQ Index Pollutant
Not available.

Snow Depth

Station Depth Elevation

Earthquake Activity

City Distance Mag. Time & Date
Minimum magnitude displayed is 2.5.

Coastal Water Temperatures

Place Temperature

Stations

Nearby Weather Stations

Station Location Temp. Windchill Dew Point Humidity Wind Precip. Elev Updated Type